Torna al catalogo

CZ-6A DEB

AttivoLEO
NORAD 100175·DEBRIS·🇨🇳 China

Lanciato Jul 30, 2026 da Taiyuan Satellite Launch Center

Loading…

Prossimi Passaggi (prossime 24 ore)

TLE

AggiornatoSource: Space-Track

Epoca: Sep 14, 2026, 13:20 UTC

1 A0175U 26173B   26257.55563734 -.00000355  00000-0 -61233-3 0  9995
2 A0175  64.7883 165.7466 0005534 239.4622 120.5861 13.27995776  6185

Traccia CZ-6A DEB in tempo reale con AllMySat

Download on the App Store